Location: La Fredeussais
(48.1780°N, 1.3980°W)
Time: 08:21:28
(UTC+00:00)

SL-4 R/B - Pass Details

Date: 09 May 2021
Orbit: 427 x 663 km, 51.6° (Epoch: 12 June)

Event Time Altitude Azimuth Distance (km) Brightness Sun altitude
Rises 21:06:14 0° 286° (WNW) 2,801 6.7 -13.4°
Reaches altitude 10° 21:09:08 10° 265° (W) 1,944 5.3 -13.8°
Maximum altitude 21:11:56 17° 226° (SW) 1,595 4.3 -14.1°
Enters shadow 21:14:42 11° 189° (S) 1,979 4.5 -14.4°
